Location: Kailua
(21.4020°N, 157.7390°W)
Time: 08:20:03
(UTC-10:00)

Daily predictions for brighter satellites

Satellite Brightness Start Highest point End
(mag) Time Altitude Azimuth Time Altitude Azimuth Time Altitude Azimuth
IDEFIX/ARIANE 42P 2.5 18:06:06 10° SSE 18:11:16 70° ENE 18:16:26 10° N
Fermi 4.2 18:10:31 10° WNW 18:14:30 46° N 18:18:28 10° ENE
Cosmos 1544 Rocket 3.6 18:12:22 10° N 18:16:48 64° E 18:21:12 10° SSE
COSMO-SKYMED 1 2.6 18:12:49 10° NNE 18:17:06 61° E 18:21:22 10° S
Cosmos 2278 Rocket 2.8 18:12:45 10° SSW 18:18:18 61° WNW 18:23:53 10° N
Cosmos 1484 Rocket 3.6 18:16:00 10° SE 18:19:13 27° ENE 18:22:25 10° NNE
MOS 1 4.4 18:15:29 10° SSE 18:21:10 86° W 18:26:50 10° NNW
SL-08 R/B 4.5 18:15:56 10° N 18:22:14 69° E 18:28:24 10° SSE
Cosmos 1536 Rocket 4.0 18:21:32 10° SSW 18:25:55 69° W 18:30:22 10° N
Meteor 1-12 Rocket 4.5 18:20:37 10° N 18:26:17 52° E 18:32:02 10° SSE
Nadezhda 3 Rocket 4.0 18:24:43 10° S 18:30:43 58° E 18:36:48 10° NNE
Cosmos 494 Rocket 4.3 18:27:34 10° N 18:32:31 42° ENE 18:37:29 10° SE
MONITOR-E 4.2 18:29:25 10° SSE 18:32:33 59° ENE 18:35:41 10° N
YAOGAN 1 3.1 18:29:07 10° S 18:33:23 63° W 18:37:40 10° NNW
COSMOS 2406 3.7 18:28:58 10° NNW 18:34:39 67° WSW 18:40:19 10° S
GPS 2-17 Rocket1 3.6 18:33:28 10° WSW 18:38:03 51° SSE 18:41:40 15° E
Meteor 1-13 Rocket 4.2 18:33:27 10° S 18:38:56 64° E 18:44:33 10° NNE
Intercosmos 25 4.4 18:38:34 18° ENE 18:39:10 19° E 18:41:55 10° SE
ATLAS 5 CENTAUR R/B 3.7 18:34:52 10° SW 18:40:37 57° SSE 19:04:05 17° E
ATLAS 5 CENTAUR R/B 3.7 18:34:52 10° SW 18:40:37 57° SSE 19:04:04 17° E
ATLAS 5 CENTAUR R/B 3.7 18:34:52 10° SW 18:40:37 57° SSE 19:04:06 17° E
ATLAS 5 CENTAUR R/B 3.7 18:34:53 10° SW 18:40:37 57° SSE 19:04:06 17° E
ATLAS 5 CENTAUR R/B 3.7 18:34:52 10° SW 18:40:37 57° SSE 19:04:08 17° E
SL-27 R/B 2.5 18:37:11 10° NNW 18:40:49 88° WSW 18:44:23 10° SSE
Cosmos 1025 Rocket 3.9 18:37:16 10° SSE 18:40:58 28° E 18:43:50 15° NE
Cosmos 1500 3.3 18:43:02 10° N 18:46:45 49° E 18:50:29 10° SSE
Cosmos 921 Rocket 2.8 18:43:24 10° S 18:47:34 77° ESE 18:51:48 10° NNE
Meteor 1-28 Rocket 3.2 18:46:56 10° N 18:50:44 87° W 18:54:30 10° SSW
CZ-2C R/B 4.1 18:46:21 10° SSW 18:50:48 37° W 18:55:24 10° NNW
OTV 4 2.4 18:49:26 10° NNW 18:51:03 16° NNE 18:51:03 16° NNE
Hubble Space Telescope 1.1 18:48:26 10° WNW 18:52:33 64° SSW 18:55:54 15° ESE
GPS 2-18 Rocket1 3.6 18:48:58 10° W 18:52:52 58° S 18:55:33 19° ESE
Timation 1 Rocket 4.4 18:47:40 10° SSW 18:53:37 84° WNW 18:59:35 10° NNE
Cosmos 2251 Rocket 3.5 18:48:44 10° NNW 18:54:04 90° ESE 18:59:21 10° SSE
Cosmos 2082 Rocket 4.1 18:50:49 10° NNE 18:51:08 11° NNE 18:51:08 11° NNE
Orbus 7S? 3.6 18:52:21 10° S 18:55:55 31° SE 18:56:21 30° ESE
Okean 1-7 Rocket 3.5 18:51:31 10° S 18:56:04 84° E 19:00:35 10° N
ATLAS 2AS CENTAUR R/B 2.9 18:51:40 10° NNW 18:59:26 64° ENE 19:06:30 10° SE
GPS 2-14 Rocket1 2.7 18:58:20 10° W 19:02:24 82° S 19:04:02 35° E
Okean 2 4.3 18:59:20 10° SSE 19:02:27 28° ESE 19:02:27 28° ESE
Meteor 2-4 Rocket 3.5 19:04:39 10° S 19:10:05 70° E 19:14:44 14° NNE
Palapa 6 Rocket 3.5 19:06:41 10° W 19:12:56 78° N 19:14:52 40° E
Meteor 2-21 Rocket 4.3 19:06:59 10° N 19:13:09 73° E 19:19:14 10° S
Cosmos 1892 Rocket 4.2 19:09:20 10° SSE 19:12:41 36° ESE 19:12:41 36° ESE
FALCON 9 R/B 4.0 18:52:13 10° W 19:15:44 43° NNW 19:20:17 23° NE
Meteor 2-16 Rocket 4.3 19:11:54 10° N 19:17:54 63° E 19:23:55 10° SSE
GEOS 3 Rocket 3.9 19:20:16 41° NE 19:20:16 41° NE 19:24:54 10° NNW
Helios 1B rocket 3.0 19:21:55 40° SE 19:21:55 40° SE 19:25:01 10° S
SJ-6B 3.3 19:18:11 10° SSE 19:20:50 42° SE 19:20:50 42° SE
Cosmos 2369 Rocket 3.8 19:21:57 10° SSE 19:24:01 18° SE 19:24:01 18° SE
Cosmos 2056 Rocket 3.6 19:28:28 10° SSW 19:33:53 78° WNW 19:36:15 34° N
Aurora 2 Rocket 4.4 19:27:25 10° W 19:38:12 74° N 19:41:20 46° ENE
Cosmos 1535 Rocket 4.3 19:33:12 10° N 19:39:29 87° E 19:45:40 10° S
Centaur D AC-25 4.1 19:35:44 10° W 19:41:01 73° N 19:47:54 36° ENE
Centaur D AC-25 4.1 19:35:45 10° W 19:41:01 73° N 19:47:55 36° ENE
Centaur D AC-25 4.1 19:35:45 10° W 19:41:01 73° N 19:47:53 36° ENE
Cosmos 1934 Rocket 3.8 19:35:43 10° N 19:41:54 69° E 19:48:11 10° SSE
Delta 128 4.5 19:36:02 10° W 19:42:18 51° NNW 19:42:49 50° N
GPS 2-15 Rocket1 3.4 19:37:42 10° W 19:42:20 57° S 19:42:20 57° S
Cosmos 1241 Rocket 4.5 19:38:53 10° NNW 19:45:30 88° WSW 19:52:00 10° SSE
Timation 2 Rocket 4.0 19:40:45 10° NNW 19:47:36 67° ENE 19:54:23 10° SSE
ATLAS 3B CENTAUR R/B 3.1 19:36:50 10° W 19:52:00 54° N 19:53:12 50° NNE
Hubble Space Telescope 4.1 20:31:16 10° WSW 20:31:21 10° WSW 20:31:21 10° WSW
